contact:dominique.lefevre@mio.osupytheas.fr, maurice.libes@osupytheas.fr, didier.mallarino@osupytheas.fr
Project:EMSO http://www.emso-fr.org/EMSO-France
Depth: 2436.0 m
Title:EMSO Ligure Ouest : Data MII capteur AQUADOPP
Date,Latitude,Longitude,X_East,Y_North,Z_Up,Amplitude_X,Amplitude_Y,Amplitude_Z,Batterie,SoundSpeed,Heading,Pitch,Roll,Pressure,TIS,Speed,Direction
, degrees North, degrees East, m.s-1, m.s-1,m.s-1, 1, 1, 1, Volt, m.s-1, degree, degree, degree, dbar, degree_C, m.s-1, degree
2023-10-22T00:04:03,42.805,6.029,0.013,0.011,-0.004,102.0,102.0,101.0,13.4,1505.2,351.8,-0.8,1.8,2471.617,13.3,0.017,49.8
2023-10-22T00:07:03,42.805,6.029,-0.001,-0.008,-0.027,104.0,103.0,100.0,13.4,1505.2,353.8,-0.7,1.8,2471.601,13.3,0.008,187.1
2023-10-22T00:10:03,42.805,6.029,-0.02,0.009,-0.027,102.0,102.0,102.0,13.4,1505.2,333.8,-0.8,1.8,2471.564,13.3,0.021,294.2
2023-10-22T00:13:03,42.805,6.029,-0.004,0.004,0.013,103.0,102.0,101.0,13.4,1505.2,341.5,-0.8,1.8,2471.621,13.3,0.005,315.0
2023-10-22T00:16:03,42.805,6.029,-0.007,0.008,-0.025,102.0,103.0,102.0,13.4,1505.2,352.6,-0.8,1.8,2471.605,13.3,0.01,318.8
2023-10-22T00:19:03,42.805,6.029,0.014,0.011,-0.006,104.0,102.0,102.0,13.4,1505.2,335.2,-0.7,1.8,2471.554,13.3,0.017,51.8
2023-10-22T00:22:03,42.805,6.029,0.037,0.004,-0.001,101.0,103.0,101.0,13.4,1505.2,347.2,-0.7,1.8,2471.581,13.3,0.037,83.8
2023-10-22T00:25:03,42.805,6.029,0.018,0.028,0.002,104.0,104.0,101.0,13.3,1505.2,333.4,-0.8,1.8,2471.549,13.3,0.033,32.7
2023-10-22T00:28:03,42.805,6.029,0.007,0.004,-0.017,102.0,102.0,102.0,13.4,1505.2,342.3,-0.8,1.8,2471.583,13.29,0.008,60.3
2023-10-22T00:31:03,42.805,6.029,0.016,0.002,-0.021,103.0,101.0,101.0,13.4,1505.2,337.5,-0.8,1.8,2471.556,13.29,0.016,82.9
2023-10-22T00:34:03,42.805,6.029,-0.015,0.017,-0.041,103.0,102.0,101.0,13.4,1505.2,343.7,-0.8,1.8,2471.599,13.29,0.022,318.6
2023-10-22T00:37:03,42.805,6.029,0.007,0.003,-0.032,104.0,103.0,101.0,13.4,1505.2,339.7,-0.8,1.8,2471.56,13.29,0.007,66.8
2023-10-22T00:40:03,42.805,6.029,0.019,0.001,-0.008,102.0,102.0,102.0,13.3,1505.2,350.2,-0.8,1.8,2471.56,13.29,0.019,87.0
2023-10-22T00:43:03,42.805,6.029,-0.001,0.0,0.015,102.0,101.0,100.0,13.4,1505.2,350.7,-0.7,1.8,2471.555,13.29,0.001,270.0
2023-10-22T00:46:03,42.805,6.029,0.0,0.013,-0.037,101.0,102.0,102.0,13.4,1505.2,353.8,-0.7,1.8,2471.568,13.29,0.013,0.0
2023-10-22T00:49:03,42.805,6.029,0.008,0.024,-0.021,102.0,101.0,101.0,13.3,1505.2,345.7,-0.7,1.8,2471.575,13.29,0.025,18.4
2023-10-22T00:52:03,42.805,6.029,0.004,-0.003,-0.043,102.0,101.0,100.0,13.3,1505.2,350.6,-0.8,1.8,2471.563,13.29,0.005,126.9
2023-10-22T00:55:03,42.805,6.029,0.008,0.012,-0.016,104.0,102.0,102.0,13.4,1505.2,336.3,-0.7,1.8,2471.578,13.29,0.014,33.7
2023-10-22T00:58:03,42.805,6.029,0.009,0.015,-0.042,103.0,102.0,101.0,13.4,1505.2,349.6,-0.8,1.8,2471.544,13.29,0.017,31.0
2023-10-22T01:04:03,42.805,6.029,-0.004,0.007,-0.014,102.0,105.0,102.0,13.4,1505.2,333.0,-0.8,1.8,2471.62,13.29,0.008,330.3
2023-10-22T01:07:03,42.805,6.029,-0.01,-0.002,-0.006,102.0,102.0,101.0,13.4,1505.2,336.3,-0.8,1.8,2471.588,13.29,0.01,258.7
2023-10-22T01:10:03,42.805,6.029,0.014,-0.011,-0.016,102.0,102.0,101.0,13.4,1505.2,339.7,-0.8,1.8,2471.583,13.29,0.017,128.2
2023-10-22T01:13:05,42.805,6.029,0.011,0.013,0.003,103.0,106.0,103.0,13.4,1505.2,349.7,-0.8,1.8,2471.549,13.29,0.017,40.2
2023-10-22T01:16:03,42.805,6.029,0.021,0.015,-0.005,102.0,103.0,101.0,13.4,1505.2,353.7,-0.8,1.8,2471.574,13.29,0.025,54.5
2023-10-22T01:19:03,42.805,6.029,0.011,0.019,-0.014,101.0,101.0,102.0,13.4,1505.2,358.0,-0.7,1.8,2471.565,13.29,0.021,30.1
2023-10-22T01:22:03,42.805,6.029,0.011,0.001,0.018,101.0,102.0,103.0,13.4,1505.2,331.5,-0.8,1.8,2471.552,13.29,0.011,84.8
2023-10-22T01:25:03,42.805,6.029,-0.003,0.018,-0.024,103.0,104.0,101.0,13.4,1505.2,346.4,-0.8,1.8,2471.564,13.29,0.018,350.5
2023-10-22T01:28:03,42.805,6.029,0.017,0.015,-0.025,103.0,103.0,100.0,13.4,1505.2,340.6,-0.8,1.8,2471.573,13.29,0.022,48.6
2023-10-22T01:31:03,42.805,6.029,0.0,0.019,-0.007,103.0,102.0,101.0,13.4,1505.2,341.0,-0.8,1.8,2471.571,13.29,0.019,0.0
2023-10-22T01:34:03,42.805,6.029,0.009,0.0,0.004,102.0,104.0,100.0,13.3,1505.2,341.5,-0.8,1.8,2471.547,13.29,0.009,90.0
2023-10-22T01:37:03,42.805,6.029,0.014,-0.028,-0.033,104.0,103.0,101.0,13.3,1505.2,337.5,-0.8,1.8,2471.535,13.29,0.031,153.4
2023-10-22T01:40:03,42.805,6.029,0.002,-0.001,-0.006,102.0,103.0,102.0,13.4,1505.2,0.0,-0.8,1.8,2471.569,13.3,0.002,116.6
2023-10-22T01:43:03,42.805,6.029,0.032,-0.001,-0.009,102.0,102.0,102.0,13.3,1505.2,333.0,-0.8,1.8,2471.542,13.3,0.032,91.8
2023-10-22T01:46:03,42.805,6.029,0.008,-0.002,-0.013,104.0,103.0,100.0,13.4,1505.2,337.5,-0.8,1.8,2471.532,13.3,0.008,104.0
2023-10-22T01:49:03,42.805,6.029,0.031,-0.008,-0.029,101.0,104.0,102.0,13.3,1505.2,342.9,-0.8,1.8,2471.529,13.3,0.032,104.5
2023-10-22T01:52:03,42.805,6.029,-0.01,-0.008,-0.044,103.0,104.0,100.0,13.4,1505.2,357.1,-0.8,1.8,2471.578,13.3,0.012,231.3
2023-10-22T01:55:03,42.805,6.029,-0.002,0.015,-0.036,101.0,103.0,101.0,13.4,1505.2,332.2,-0.8,1.8,2471.566,13.3,0.015,352.4
2023-10-22T01:58:03,42.805,6.029,0.009,-0.003,-0.014,103.0,101.0,103.0,13.4,1505.2,352.0,-0.8,1.8,2471.533,13.3,0.009,108.4
2023-10-22T02:04:03,42.805,6.029,-0.003,0.001,-0.046,102.0,102.0,102.0,13.3,1505.2,343.4,-0.7,1.8,2471.591,13.29,0.003,288.4
2023-10-22T02:07:03,42.805,6.029,0.013,0.015,0.001,102.0,102.0,100.0,13.4,1505.2,340.7,-0.7,1.8,2471.59,13.29,0.019,40.9
2023-10-22T02:10:03,42.805,6.029,0.021,-0.005,-0.001,103.0,102.0,101.0,13.4,1505.2,341.8,-0.8,1.8,2471.56,13.29,0.021,103.4
2023-10-22T02:13:03,42.805,6.029,0.02,0.0,-0.025,103.0,102.0,101.0,13.4,1505.2,356.9,-0.8,1.8,2471.593,13.29,0.02,90.0
2023-10-22T02:16:03,42.805,6.029,-0.001,0.0,-0.029,101.0,109.0,102.0,13.4,1505.2,348.2,-0.8,1.8,2471.578,13.29,0.001,270.0
2023-10-22T02:19:03,42.805,6.029,0.003,-0.004,-0.036,103.0,102.0,102.0,13.4,1505.2,349.8,-0.8,1.8,2471.596,13.29,0.005,143.1
2023-10-22T02:22:03,42.805,6.029,0.004,-0.006,-0.035,102.0,102.0,101.0,13.4,1505.2,347.4,-0.7,1.8,2471.53,13.29,0.007,146.3
2023-10-22T02:25:03,42.805,6.029,0.017,0.0,-0.017,107.0,102.0,101.0,13.3,1505.2,348.1,-0.8,1.8,2471.539,13.29,0.017,90.0
2023-10-22T02:28:03,42.805,6.029,0.018,-0.015,0.006,102.0,101.0,102.0,13.3,1505.2,357.1,-0.8,1.8,2471.514,13.29,0.023,129.8
2023-10-22T02:31:03,42.805,6.029,0.007,0.005,-0.011,101.0,102.0,102.0,13.4,1505.2,331.1,-0.8,1.8,2471.54,13.29,0.008,54.5
2023-10-22T02:34:03,42.805,6.029,0.001,0.011,-0.034,104.0,100.0,101.0,13.3,1505.2,347.5,-0.8,1.8,2471.583,13.29,0.011,5.2
2023-10-22T02:37:03,42.805,6.029,-0.004,0.014,-0.057,106.0,101.0,102.0,13.4,1505.2,356.9,-0.8,1.8,2471.557,13.29,0.014,344.1
2023-10-22T02:40:03,42.805,6.029,0.002,0.002,-0.031,106.0,100.0,102.0,13.3,1505.2,336.9,-0.7,1.8,2471.537,13.29,0.002,45.0
2023-10-22T02:43:03,42.805,6.029,-0.006,-0.008,-0.048,102.0,101.0,101.0,13.3,1505.2,345.7,-0.7,1.8,2471.556,13.29,0.01,216.9
2023-10-22T02:46:03,42.805,6.029,-0.002,-0.008,-0.049,103.0,103.0,100.0,13.3,1505.2,350.8,-0.7,1.8,2471.552,13.29,0.008,194.0
2023-10-22T02:49:03,42.805,6.029,0.025,0.007,-0.008,102.0,103.0,101.0,13.4,1505.2,339.4,-0.8,1.8,2471.574,13.29,0.025,74.4
2023-10-22T02:52:03,42.805,6.029,0.004,-0.001,-0.045,102.0,102.0,102.0,13.4,1505.2,359.0,-0.8,1.8,2471.568,13.29,0.004,104.0
2023-10-22T02:55:03,42.805,6.029,0.008,0.0,0.0,104.0,107.0,101.0,13.4,1505.2,331.5,-0.7,1.8,2471.536,13.29,0.008,90.0
2023-10-22T02:58:03,42.805,6.029,0.0,0.0,-0.055,103.0,102.0,101.0,13.4,1505.2,351.6,-0.8,1.8,2471.539,13.29,0.0,0.0
2023-10-22T03:04:03,42.805,6.029,0.019,0.028,-0.01,102.0,104.0,101.0,13.4,1505.2,359.0,-0.7,1.8,2471.592,13.29,0.033,34.2
2023-10-22T03:07:03,42.805,6.029,0.011,0.023,-0.013,103.0,102.0,101.0,13.4,1505.2,331.0,-0.8,1.8,2471.615,13.29,0.025,25.6
2023-10-22T03:10:03,42.805,6.029,0.013,0.006,-0.041,103.0,102.0,102.0,13.4,1505.2,339.8,-0.8,1.8,2471.569,13.29,0.014,65.2
2023-10-22T03:13:03,42.805,6.029,0.023,-0.004,-0.016,103.0,102.0,100.0,13.4,1505.2,345.2,-0.8,1.8,2471.581,13.29,0.023,99.9
2023-10-22T03:16:03,42.805,6.029,0.008,0.013,-0.024,103.0,103.0,102.0,13.4,1505.2,358.0,-0.7,1.8,2471.547,13.29,0.015,31.6
2023-10-22T03:19:03,42.805,6.029,0.02,-0.011,-0.03,102.0,102.0,106.0,13.4,1505.2,334.9,-0.7,1.8,2471.561,13.29,0.022,118.8
2023-10-22T03:22:03,42.805,6.029,0.02,0.014,-0.019,102.0,103.0,101.0,13.4,1505.2,346.6,-0.7,1.8,2471.573,13.29,0.024,55.0
2023-10-22T03:25:03,42.805,6.029,0.017,0.015,-0.006,104.0,101.0,101.0,13.4,1505.2,344.3,-0.8,1.8,2471.562,13.29,0.022,48.6
2023-10-22T03:28:03,42.805,6.029,0.02,-0.025,-0.048,102.0,102.0,103.0,13.4,1505.2,358.0,-0.7,1.8,2471.555,13.29,0.032,141.3
2023-10-22T03:31:03,42.805,6.029,-0.001,0.004,0.001,103.0,102.0,101.0,13.4,1505.2,329.8,-0.8,1.8,2471.56,13.29,0.004,346.0
2023-10-22T03:34:03,42.805,6.029,0.013,0.01,-0.008,103.0,103.0,101.0,13.4,1505.2,348.5,-0.8,1.9,2471.601,13.29,0.016,52.4
2023-10-22T03:37:03,42.805,6.029,0.012,0.007,-0.012,102.0,102.0,101.0,13.4,1505.2,348.6,-0.8,1.8,2471.554,13.29,0.013,59.7
2023-10-22T03:40:03,42.805,6.029,0.041,-0.017,0.02,102.0,103.0,101.0,13.4,1505.2,339.8,-0.7,1.8,2471.585,13.29,0.044,112.5
2023-10-22T03:43:03,42.805,6.029,0.013,0.001,-0.013,103.0,103.0,102.0,13.4,1505.2,359.0,-0.8,1.8,2471.546,13.29,0.013,85.6
2023-10-22T03:46:03,42.805,6.029,-0.003,0.001,-0.021,102.0,101.0,102.0,13.4,1505.2,331.7,-0.8,1.8,2471.555,13.29,0.003,288.4
2023-10-22T03:49:03,42.805,6.029,0.015,-0.011,-0.028,104.0,103.0,102.0,13.4,1505.2,351.4,-0.8,1.9,2471.556,13.29,0.018,126.3
2023-10-22T03:52:03,42.805,6.029,0.022,-0.016,-0.004,103.0,103.0,102.0,13.4,1505.2,344.0,-0.7,1.8,2471.545,13.29,0.027,126.0
2023-10-22T03:55:03,42.805,6.029,0.026,0.0,-0.014,102.0,103.0,101.0,13.4,1505.2,357.3,-0.7,1.8,2471.568,13.29,0.026,90.0
2023-10-22T03:58:03,42.805,6.029,-0.005,0.012,-0.032,103.0,104.0,101.0,13.4,1505.2,330.6,-0.8,1.8,2471.55,13.29,0.013,337.4
2023-10-22T04:04:03,42.805,6.029,0.028,-0.001,-0.017,103.0,103.0,101.0,13.4,1505.2,341.5,-0.7,1.8,2471.578,13.29,0.028,92.0
2023-10-22T04:07:03,42.805,6.029,0.018,-0.008,-0.035,104.0,103.0,102.0,13.4,1505.2,353.6,-0.7,1.8,2471.596,13.29,0.019,114.0
2023-10-22T04:10:03,42.805,6.029,0.012,-0.008,0.0,103.0,103.0,102.0,13.4,1505.2,347.0,-0.8,1.8,2471.59,13.29,0.014,123.7
2023-10-22T04:13:03,42.805,6.029,0.016,0.029,0.022,103.0,103.0,101.0,13.4,1505.2,331.3,-0.8,1.8,2471.608,13.29,0.033,28.9
2023-10-22T04:16:03,42.805,6.029,0.012,0.005,-0.025,103.0,102.0,101.0,13.4,1505.2,341.0,-0.8,1.8,2471.602,13.29,0.013,67.4
2023-10-22T04:19:03,42.805,6.029,0.009,0.012,-0.021,101.0,102.0,102.0,13.4,1505.2,343.6,-0.8,1.8,2471.569,13.29,0.015,36.9
2023-10-22T04:22:03,42.805,6.029,0.003,0.016,-0.007,102.0,104.0,101.0,13.4,1505.2,351.0,-0.8,1.8,2471.601,13.29,0.016,10.6
2023-10-22T04:25:03,42.805,6.029,0.014,-0.007,-0.036,103.0,108.0,102.0,13.3,1505.2,346.1,-0.8,1.8,2471.563,13.29,0.015,116.6
2023-10-22T04:28:03,42.805,6.029,0.014,0.0,-0.034,102.0,102.0,101.0,13.4,1505.2,335.0,-0.7,1.8,2471.558,13.29,0.014,90.0
2023-10-22T04:31:03,42.805,6.029,0.029,0.008,-0.012,103.0,102.0,103.0,13.4,1505.2,340.7,-0.7,1.8,2471.561,13.29,0.03,74.6
2023-10-22T04:34:03,42.805,6.029,0.035,-0.019,-0.008,102.0,103.0,101.0,13.4,1505.2,357.9,-0.8,1.8,2471.561,13.29,0.039,118.5
2023-10-22T04:37:03,42.805,6.029,0.005,0.005,-0.05,103.0,103.0,102.0,13.3,1505.2,346.1,-0.8,1.8,2471.524,13.29,0.007,45.0
2023-10-22T04:40:03,42.805,6.029,0.018,0.0,-0.045,103.0,103.0,102.0,13.3,1505.2,332.1,-0.7,1.8,2471.57,13.29,0.018,90.0
2023-10-22T04:43:03,42.805,6.029,0.013,0.01,-0.012,103.0,104.0,101.0,13.4,1505.2,340.4,-0.8,1.8,2471.567,13.29,0.016,52.4
2023-10-22T04:46:03,42.805,6.029,0.016,0.015,-0.027,106.0,101.0,101.0,13.4,1505.2,348.2,-0.8,1.8,2471.52,13.29,0.021,46.9
2023-10-22T04:49:03,42.805,6.029,-0.003,0.022,-0.015,103.0,102.0,101.0,13.4,1505.2,343.1,-0.8,1.8,2471.566,13.29,0.022,352.2
2023-10-22T04:52:03,42.805,6.029,0.021,0.003,0.002,104.0,104.0,101.0,13.4,1505.2,329.1,-0.8,1.8,2471.519,13.29,0.021,81.9
2023-10-22T04:55:03,42.805,6.029,0.013,-0.01,-0.008,103.0,102.0,102.0,13.4,1505.2,341.5,-0.8,1.8,2471.542,13.29,0.016,127.6
2023-10-22T04:58:03,42.805,6.029,0.032,-0.004,-0.013,102.0,102.0,102.0,13.4,1505.2,354.9,-0.7,1.8,2471.553,13.29,0.032,97.1
2023-10-22T05:04:03,42.805,6.029,0.011,0.004,-0.002,101.0,103.0,102.0,13.3,1505.2,338.9,-0.8,1.8,2471.612,13.29,0.011,70.0
2023-10-22T05:07:03,42.805,6.029,0.008,-0.021,-0.002,103.0,103.0,102.0,13.3,1505.2,349.5,-0.7,1.8,2471.586,13.29,0.022,159.1
2023-10-22T05:10:03,42.805,6.029,-0.004,0.0,-0.017,103.0,102.0,102.0,13.3,1505.2,340.0,-0.8,1.8,2471.566,13.29,0.004,270.0
2023-10-22T05:13:03,42.805,6.029,0.017,0.0,-0.022,104.0,105.0,101.0,13.4,1505.2,348.6,-0.7,1.8,2471.563,13.29,0.017,90.0
2023-10-22T05:16:03,42.805,6.029,0.031,0.003,0.046,104.0,102.0,101.0,13.4,1505.2,349.5,-0.8,1.8,2471.512,13.29,0.031,84.5
2023-10-22T05:19:03,42.805,6.029,0.015,0.008,-0.011,104.0,103.0,102.0,13.4,1505.2,341.8,-0.8,1.8,2471.557,13.29,0.017,61.9
2023-10-22T05:22:03,42.805,6.029,0.027,-0.013,-0.01,103.0,103.0,102.0,13.3,1505.2,357.2,-0.7,1.8,2471.53,13.29,0.029,115.7
2023-10-22T05:25:03,42.805,6.029,0.003,0.01,0.0,104.0,102.0,101.0,13.4,1505.2,333.0,-0.8,1.8,2471.523,13.29,0.01,16.7
2023-10-22T05:28:03,42.805,6.029,0.017,-0.014,-0.001,103.0,102.0,102.0,13.4,1505.2,350.7,-0.8,1.8,2471.553,13.29,0.022,129.5
2023-10-22T05:31:03,42.805,6.029,0.004,-0.008,-0.039,102.0,103.0,101.0,13.4,1505.2,349.6,-0.8,1.8,2471.552,13.29,0.008,153.4
2023-10-22T05:34:03,42.805,6.029,0.007,-0.001,-0.039,103.0,102.0,103.0,13.3,1505.2,339.2,-0.8,1.8,2471.506,13.29,0.007,98.1
2023-10-22T05:37:03,42.805,6.029,-0.002,-0.008,-0.032,103.0,102.0,102.0,13.4,1505.2,338.2,-0.8,1.8,2471.522,13.29,0.008,194.0
2023-10-22T05:40:03,42.805,6.029,0.025,-0.004,-0.007,103.0,102.0,102.0,13.4,1505.2,339.2,-0.7,1.8,2471.544,13.29,0.025,99.1
2023-10-22T05:43:03,42.805,6.029,0.007,-0.009,0.008,104.0,105.0,101.0,13.4,1505.2,359.0,-0.8,1.8,2471.541,13.29,0.011,142.1
2023-10-22T05:46:03,42.805,6.029,0.009,-0.009,-0.016,102.0,101.0,102.0,13.3,1505.2,341.0,-0.8,1.8,2471.522,13.29,0.012,135.0
2023-10-22T05:49:03,42.805,6.029,0.022,-0.017,-0.009,102.0,102.0,102.0,13.3,1505.2,350.8,-0.8,1.8,2471.548,13.29,0.027,127.7
2023-10-22T05:52:03,42.805,6.029,0.018,0.005,0.0,103.0,103.0,102.0,13.4,1505.2,348.8,-0.8,1.8,2471.524,13.29,0.018,74.5
2023-10-22T05:55:03,42.805,6.029,0.015,-0.01,0.008,103.0,102.0,101.0,13.4,1505.2,332.6,-0.8,1.8,2471.532,13.29,0.018,123.7
2023-10-22T05:58:03,42.805,6.029,0.003,-0.008,-0.022,103.0,103.0,101.0,13.4,1505.2,343.9,-0.8,1.8,2471.539,13.29,0.008,159.4
2023-10-22T06:04:03,42.805,6.029,0.023,-0.007,-0.009,102.0,102.0,101.0,13.4,1505.2,357.9,-0.8,1.8,2471.585,13.29,0.024,106.9
2023-10-22T06:07:03,42.805,6.029,0.011,-0.009,-0.04,103.0,102.0,101.0,13.3,1505.2,346.9,-0.8,1.8,2471.605,13.29,0.014,129.3
2023-10-22T06:10:03,42.805,6.029,0.024,-0.009,0.0,103.0,102.0,102.0,13.4,1505.2,339.9,-0.8,1.8,2471.541,13.29,0.025,110.6
2023-10-22T06:13:03,42.805,6.029,0.012,-0.003,-0.006,102.0,102.0,102.0,13.3,1505.2,349.0,-0.8,1.8,2471.523,13.29,0.012,104.0
2023-10-22T06:16:03,42.805,6.029,0.035,-0.008,0.004,102.0,103.0,100.0,13.3,1505.2,343.3,-0.8,1.8,2471.551,13.29,0.035,102.9
2023-10-22T06:19:03,42.805,6.029,0.0,0.012,0.008,102.0,102.0,103.0,13.4,1505.2,344.2,-0.8,1.8,2471.521,13.29,0.012,0.0
2023-10-22T06:22:03,42.805,6.029,0.005,0.0,-0.028,103.0,103.0,101.0,13.3,1505.2,335.2,-0.8,1.8,2471.537,13.29,0.005,90.0
2023-10-22T06:25:03,42.805,6.029,0.012,-0.015,-0.038,103.0,102.0,103.0,13.3,1505.2,352.1,-0.8,1.8,2471.523,13.29,0.019,141.3
2023-10-22T06:28:03,42.805,6.029,-0.013,-0.006,-0.033,104.0,101.0,102.0,13.4,1505.2,343.7,-0.7,1.8,2471.528,13.29,0.014,245.2
2023-10-22T06:31:03,42.805,6.029,0.01,-0.018,-0.019,102.0,102.0,101.0,13.4,1505.2,354.7,-0.8,1.8,2471.548,13.29,0.02,150.9
2023-10-22T06:34:03,42.805,6.029,0.004,-0.003,-0.008,101.0,102.0,102.0,13.3,1505.2,329.9,-0.8,1.8,2471.548,13.29,0.005,126.9
2023-10-22T06:37:03,42.805,6.029,0.012,-0.002,0.003,104.0,104.0,102.0,13.4,1505.2,335.6,-0.7,1.8,2471.549,13.29,0.012,99.5
2023-10-22T06:40:03,42.805,6.029,0.019,-0.027,-0.008,102.0,102.0,102.0,13.4,1505.2,338.3,-0.8,1.8,2471.52,13.29,0.033,144.9
2023-10-22T06:43:03,42.805,6.029,0.015,-0.014,-0.031,102.0,103.0,101.0,13.4,1505.2,0.0,-0.8,1.9,2471.548,13.29,0.02,133.0
2023-10-22T06:46:03,42.805,6.029,0.009,-0.017,-0.028,102.0,102.0,102.0,13.4,1505.2,338.7,-0.7,1.8,2471.528,13.29,0.019,152.1
2023-10-22T06:49:03,42.805,6.029,0.0,0.013,-0.042,103.0,102.0,101.0,13.4,1505.2,338.3,-0.8,1.8,2471.512,13.29,0.013,0.0
2023-10-22T06:52:03,42.805,6.029,0.003,-0.002,-0.044,103.0,102.0,102.0,13.4,1505.2,336.3,-0.7,1.8,2471.514,13.29,0.003,123.7
2023-10-22T06:55:03,42.805,6.029,0.011,0.008,-0.021,104.0,102.0,101.0,13.4,1505.2,343.2,-0.8,1.8,2471.529,13.29,0.013,54.0
2023-10-22T06:58:03,42.805,6.029,0.02,-0.008,-0.003,103.0,103.0,102.0,13.4,1505.2,340.7,-0.8,1.8,2471.559,13.29,0.021,111.8
2023-10-22T07:04:03,42.805,6.029,0.02,0.0,-0.018,103.0,103.0,102.0,13.4,1505.2,341.8,-0.8,1.8,2471.601,13.29,0.02,90.0
2023-10-22T07:07:03,42.805,6.029,-0.008,0.011,-0.031,102.0,102.0,101.0,13.3,1505.2,347.4,-0.8,1.8,2471.569,13.29,0.013,324.0
2023-10-22T07:10:03,42.805,6.029,0.001,0.003,-0.003,103.0,102.0,101.0,13.4,1505.2,336.3,-0.8,1.8,2471.59,13.29,0.003,18.4
2023-10-22T07:13:03,42.805,6.029,-0.013,-0.011,-0.029,103.0,102.0,101.0,13.4,1505.2,334.7,-0.8,1.8,2471.586,13.29,0.017,229.8
2023-10-22T07:16:03,42.805,6.029,0.02,0.0,-0.002,102.0,102.0,101.0,13.4,1505.2,353.8,-0.8,1.8,2471.553,13.29,0.02,90.0
2023-10-22T07:19:03,42.805,6.029,0.013,0.009,-0.036,103.0,103.0,101.0,13.4,1505.2,335.6,-0.7,1.8,2471.545,13.29,0.015,55.3
2023-10-22T07:22:03,42.805,6.029,0.016,-0.004,-0.028,102.0,102.0,101.0,13.4,1505.2,339.3,-0.8,1.8,2471.551,13.29,0.016,104.0
2023-10-22T07:25:03,42.805,6.029,0.035,0.012,0.02,104.0,102.0,101.0,13.4,1505.2,337.5,-0.7,1.8,2471.583,13.29,0.037,71.1
2023-10-22T07:28:03,42.805,6.029,0.007,-0.017,-0.039,103.0,103.0,104.0,13.4,1505.2,356.4,-0.8,1.8,2471.568,13.29,0.018,157.6
2023-10-22T07:31:03,42.805,6.029,0.002,0.013,-0.027,103.0,103.0,101.0,13.4,1505.2,353.1,-0.7,1.8,2471.578,13.29,0.013,8.7
2023-10-22T07:34:03,42.805,6.029,0.011,-0.003,-0.003,103.0,102.0,102.0,13.4,1505.2,338.7,-0.8,1.8,2471.575,13.29,0.011,105.3
2023-10-22T07:37:03,42.805,6.029,0.003,-0.011,-0.024,104.0,102.0,101.0,13.4,1505.2,0.0,-0.8,1.8,2471.566,13.29,0.011,164.7
2023-10-22T07:40:03,42.805,6.029,-0.01,0.001,-0.045,104.0,103.0,101.0,13.4,1505.2,343.1,-0.8,1.8,2471.565,13.29,0.01,275.7
2023-10-22T07:43:03,42.805,6.029,-0.009,-0.002,-0.034,103.0,102.0,101.0,13.4,1505.2,339.1,-0.8,1.8,2471.563,13.29,0.009,257.5
2023-10-22T07:46:03,42.805,6.029,-0.009,0.006,-0.021,103.0,103.0,104.0,13.4,1505.2,337.6,-0.8,1.8,2471.535,13.29,0.01,303.7
2023-10-22T07:49:03,42.805,6.029,0.0,-0.001,-0.029,102.0,103.0,102.0,13.4,1505.2,358.0,-0.8,1.8,2471.556,13.29,0.001,180.0
2023-10-22T07:52:03,42.805,6.029,0.013,-0.017,-0.013,104.0,105.0,102.0,13.4,1505.2,350.5,-0.8,1.8,2471.572,13.29,0.021,142.6
2023-10-22T07:55:03,42.805,6.029,-0.009,-0.012,-0.038,104.0,103.0,101.0,13.3,1505.2,0.0,-0.8,1.8,2471.545,13.29,0.015,216.9
2023-10-22T07:58:03,42.805,6.029,0.009,0.011,-0.048,103.0,106.0,102.0,13.3,1505.2,354.6,-0.8,1.8,2471.542,13.29,0.014,39.3
2023-10-22T08:04:03,42.805,6.029,0.012,-0.005,-0.011,106.0,102.0,102.0,13.4,1505.2,336.8,-0.8,1.8,2471.647,13.29,0.013,112.6
2023-10-22T08:07:03,42.805,6.029,0.017,0.004,0.021,103.0,101.0,103.0,13.3,1505.2,338.7,-0.8,1.8,2471.552,13.29,0.017,76.8
2023-10-22T08:10:03,42.805,6.029,-0.009,-0.007,-0.015,103.0,104.0,101.0,13.3,1505.2,0.0,-0.8,1.8,2471.597,13.29,0.011,232.1
2023-10-22T08:13:03,42.805,6.029,0.013,-0.003,-0.009,104.0,103.0,101.0,13.4,1505.2,332.6,-0.8,1.8,2471.59,13.29,0.013,103.0
2023-10-22T08:16:03,42.805,6.029,0.008,-0.009,-0.022,104.0,102.0,102.0,13.3,1505.2,347.9,-0.7,1.8,2471.542,13.29,0.012,138.4
2023-10-22T08:19:03,42.805,6.029,0.027,0.0,0.003,101.0,104.0,101.0,13.4,1505.2,345.5,-0.8,1.8,2471.567,13.29,0.026,90.0
2023-10-22T08:22:03,42.805,6.029,0.009,-0.009,-0.015,105.0,102.0,102.0,13.4,1505.2,338.2,-0.8,1.8,2471.572,13.29,0.012,135.0
2023-10-22T08:25:03,42.805,6.029,0.003,0.002,-0.014,103.0,104.0,102.0,13.3,1505.2,350.8,-0.7,1.8,2471.641,13.29,0.003,56.3
2023-10-22T08:28:03,42.805,6.029,0.023,-0.024,-0.013,103.0,102.0,101.0,13.4,1505.2,355.9,-0.7,1.8,2471.592,13.29,0.033,136.2
2023-10-22T08:31:03,42.805,6.029,0.011,-0.022,-0.03,103.0,102.0,102.0,13.4,1505.2,357.9,-0.7,1.8,2471.612,13.29,0.024,153.4
2023-10-22T08:34:03,42.805,6.029,0.018,-0.007,-0.023,105.0,102.0,101.0,13.4,1505.2,336.8,-0.8,1.8,2471.621,13.29,0.019,111.2
2023-10-22T08:37:03,42.805,6.029,0.007,0.009,-0.015,103.0,104.0,101.0,13.4,1505.2,339.3,-0.8,1.8,2471.589,13.29,0.011,37.9
2023-10-22T08:40:03,42.805,6.029,0.013,-0.03,-0.027,102.0,101.0,102.0,13.4,1505.2,339.4,-0.7,1.8,2471.621,13.29,0.032,156.6
2023-10-22T08:43:03,42.805,6.029,-0.009,0.007,-0.051,103.0,102.0,101.0,13.4,1505.2,354.7,-0.8,1.8,2471.586,13.29,0.011,307.9
2023-10-22T08:46:03,42.805,6.029,0.009,-0.02,-0.036,103.0,103.0,102.0,13.4,1505.2,358.1,-0.8,1.8,2471.563,13.29,0.021,155.8
2023-10-22T08:49:03,42.805,6.029,-0.004,-0.016,-0.029,102.0,102.0,102.0,13.4,1505.2,330.0,-0.8,1.8,2471.586,13.29,0.016,194.0
2023-10-22T08:52:03,42.805,6.029,-0.005,0.013,0.001,103.0,102.0,102.0,13.4,1505.2,341.9,-0.8,1.8,2471.632,13.29,0.013,339.0
2023-10-22T08:55:03,42.805,6.029,0.0,-0.021,-0.025,103.0,102.0,101.0,13.3,1505.2,349.6,-0.8,1.8,2471.574,13.29,0.021,180.0
2023-10-22T08:58:03,42.805,6.029,0.003,0.0,-0.001,104.0,102.0,101.0,13.4,1505.2,356.9,-0.8,1.8,2471.605,13.29,0.003,90.0
2023-10-22T09:04:03,42.805,6.029,0.0,-0.009,-0.047,103.0,102.0,101.0,13.3,1505.2,348.6,-0.8,1.8,2471.665,13.29,0.009,180.0
2023-10-22T09:07:03,42.805,6.029,0.013,-0.001,-0.022,102.0,102.0,102.0,13.4,1505.2,344.9,-0.7,1.8,2471.682,13.29,0.013,94.4
2023-10-22T09:10:03,42.805,6.029,0.014,-0.009,-0.042,104.0,100.0,102.0,13.4,1505.2,354.8,-0.7,1.8,2471.62,13.29,0.016,122.7
2023-10-22T09:13:03,42.805,6.029,0.01,-0.007,0.0,103.0,102.0,101.0,13.3,1505.2,336.3,-0.8,1.8,2471.664,13.29,0.012,125.0
2023-10-22T09:16:03,42.805,6.029,-0.006,-0.014,-0.027,104.0,102.0,101.0,13.4,1505.2,333.4,-0.8,1.8,2471.638,13.29,0.015,203.2
2023-10-22T09:19:03,42.805,6.029,0.004,0.004,-0.008,104.0,103.0,101.0,13.4,1505.2,336.3,-0.8,1.8,2471.631,13.29,0.005,45.0
2023-10-22T09:22:03,42.805,6.029,0.018,-0.02,-0.008,103.0,102.0,102.0,13.3,1505.2,339.6,-0.8,1.9,2471.633,13.29,0.026,138.0
2023-10-22T09:25:03,42.805,6.029,0.0,0.007,-0.029,101.0,102.0,101.0,13.4,1505.2,342.1,-0.8,1.9,2471.617,13.29,0.007,0.0
2023-10-22T09:28:03,42.805,6.029,0.0,0.0,-0.03,102.0,102.0,103.0,13.3,1505.2,359.0,-0.8,1.8,2471.634,13.29,0.0,0.0
2023-10-22T09:31:03,42.805,6.029,0.027,-0.025,-0.029,103.0,102.0,101.0,13.4,1505.2,331.3,-0.7,1.8,2471.631,13.29,0.036,132.8
2023-10-22T09:34:03,42.805,6.029,0.016,-0.023,-0.043,103.0,101.0,101.0,13.4,1505.2,333.0,-0.8,1.8,2471.641,13.29,0.028,145.2
2023-10-22T09:37:03,42.805,6.029,0.011,-0.001,-0.016,104.0,100.0,100.0,13.3,1505.2,352.5,-0.8,1.8,2471.626,13.29,0.011,95.2
2023-10-22T09:40:03,42.805,6.029,-0.035,0.008,-0.024,103.0,102.0,102.0,13.4,1505.2,350.8,-0.8,1.8,2471.608,13.29,0.035,282.9
2023-10-22T09:43:03,42.805,6.029,0.021,-0.009,-0.031,102.0,102.0,102.0,13.4,1505.2,359.0,-0.7,1.8,2471.634,13.29,0.022,113.2
2023-10-22T09:46:03,42.805,6.029,0.013,-0.004,-0.009,101.0,101.0,102.0,13.3,1505.2,346.6,-0.8,1.8,2471.615,13.29,0.013,107.1
2023-10-22T09:49:03,42.805,6.029,0.0,0.004,-0.017,102.0,102.0,101.0,13.4,1505.2,333.4,-0.8,1.8,2471.642,13.29,0.004,0.0
2023-10-22T09:52:03,42.805,6.029,0.007,0.013,0.012,102.0,102.0,101.0,13.4,1505.2,333.8,-0.8,1.8,2471.655,13.29,0.014,28.3
2023-10-22T09:55:03,42.805,6.029,-0.014,0.021,-0.05,101.0,102.0,102.0,13.4,1505.2,340.0,-0.8,1.8,2471.672,13.29,0.025,326.3
2023-10-22T09:58:03,42.805,6.029,-0.002,-0.003,-0.015,101.0,101.0,103.0,13.4,1505.2,352.6,-0.8,1.8,2471.649,13.29,0.003,213.7